Time,TemperatureF,DewpointF,PressureIn,WindDirection,WindDirectionDegrees,WindSpeedMPH,WindSpeedGustMPH,Humidity,HourlyPrecipIn,Conditions,Clouds,dailyrainin,SolarRadiationWatts/m^2,SoftwareType,DateUTC
2013-09-14 00:02:00,45.0,44.0,-100.00,West,276,0.0,2.0,99,0.00,,,0.00,0.000000,,2013-09-14 08:02:00,
2013-09-14 00:12:00,45.0,44.0,-100.00,West,276,0.0,2.0,99,0.00,,,0.00,0.000000,,2013-09-14 08:12:00,
2013-09-14 00:21:00,45.0,44.0,-100.00,West,276,0.0,2.0,99,0.00,,,0.00,0.000000,,2013-09-14 08:21:00,
2013-09-14 00:52:00,45.0,44.0,-100.00,West,274,0.0,1.0,99,0.00,,,0.00,0.000000,,2013-09-14 08:52:00,
2013-09-14 01:02:00,45.0,44.0,-100.00,West,274,0.0,1.0,99,0.00,,,0.00,0.000000,,2013-09-14 09:02:00,
2013-09-14 01:12:00,45.0,44.0,-100.00,West,274,0.0,1.0,99,0.00,,,0.00,0.000000,,2013-09-14 09:12:00,
2013-09-14 01:21:00,45.0,44.0,-100.00,West,274,0.0,1.0,99,0.00,,,0.00,0.000000,,2013-09-14 09:21:00,
2013-09-14 01:53:00,45.0,44.0,-100.00,West,279,0.0,1.0,99,0.00,,,0.00,0.000000,,2013-09-14 09:53:00,
2013-09-14 02:03:00,45.0,44.0,-100.00,West,279,0.0,1.0,99,0.00,,,0.00,0.000000,,2013-09-14 10:03:00,
2013-09-14 02:12:00,45.0,44.0,-100.00,West,279,0.0,1.0,99,0.00,,,0.00,0.000000,,2013-09-14 10:12:00,
2013-09-14 02:23:00,45.0,44.0,-100.00,West,279,0.0,1.0,99,0.00,,,0.00,0.000000,,2013-09-14 10:23:00,
2013-09-14 02:53:00,45.0,44.0,-100.00,West,277,0.0,1.0,99,0.00,,,0.00,0.000000,,2013-09-14 10:53:00,
2013-09-14 03:02:00,45.0,44.0,-100.00,West,277,0.0,1.0,99,0.00,,,0.00,0.000000,,2013-09-14 11:02:00,
2013-09-14 03:12:00,45.0,44.0,-100.00,West,277,0.0,1.0,99,0.00,,,0.00,0.000000,,2013-09-14 11:12:00,
2013-09-14 03:22:00,45.0,44.0,-100.00,West,277,0.0,1.0,99,0.00,,,0.00,0.000000,,2013-09-14 11:22:00,
2013-09-14 03:52:00,45.0,44.0,-100.00,West,277,0.0,1.0,99,0.00,,,0.00,0.000000,,2013-09-14 11:52:00,
2013-09-14 04:02:00,45.0,44.0,-100.00,West,277,0.0,1.0,99,0.00,,,0.00,0.000000,,2013-09-14 12:02:00,
2013-09-14 04:12:00,45.0,44.0,-100.00,West,277,0.0,1.0,99,0.00,,,0.00,0.000000,,2013-09-14 12:12:00,
2013-09-14 04:22:00,45.0,44.0,-100.00,West,277,0.0,1.0,99,0.00,,,0.00,0.000000,,2013-09-14 12:22:00,
2013-09-14 04:52:00,45.0,45.0,-100.00,West,272,0.0,1.0,100,0.00,,,0.00,0.000000,,2013-09-14 12:52:00,
2013-09-14 05:01:00,45.0,45.0,-100.00,West,272,0.0,1.0,100,0.00,,,0.00,0.000000,,2013-09-14 13:01:00,
2013-09-14 05:12:00,45.0,45.0,-100.00,West,272,0.0,1.0,100,0.00,,,0.00,0.000000,,2013-09-14 13:12:00,
2013-09-14 05:21:00,45.0,45.0,-100.00,West,272,0.0,1.0,100,0.00,,,0.00,0.000000,,2013-09-14 13:21:00,
2013-09-14 05:52:00,45.0,45.0,-100.00,NW,320,0.0,1.0,100,0.00,,,0.00,0.000000,,2013-09-14 13:52:00,
2013-09-14 06:02:00,45.0,45.0,-100.00,NW,320,0.0,1.0,100,0.00,,,0.00,0.000000,,2013-09-14 14:02:00,
2013-09-14 06:11:00,45.0,45.0,-100.00,NW,320,0.0,1.0,100,0.00,,,0.00,0.000000,,2013-09-14 14:11:00,
2013-09-14 06:21:00,45.0,45.0,-100.00,NW,320,0.0,1.0,100,0.00,,,0.00,0.000000,,2013-09-14 14:21:00,
2013-09-14 06:52:00,45.0,45.0,-100.00,WNW,287,0.0,1.0,100,0.00,,,0.00,0.000000,,2013-09-14 14:52:00,
2013-09-14 07:02:00,45.0,45.0,-100.00,WNW,287,0.0,1.0,100,0.00,,,0.00,0.000000,,2013-09-14 15:02:00,
2013-09-14 07:11:00,45.0,45.0,-100.00,WNW,287,0.0,1.0,100,0.00,,,0.00,0.000000,,2013-09-14 15:11:00,
2013-09-14 07:22:00,45.0,45.0,-100.00,WNW,287,0.0,1.0,100,0.00,,,0.00,0.000000,,2013-09-14 15:22:00,
2013-09-14 07:53:00,45.0,45.0,-100.00,West,278,0.0,1.0,100,0.00,,,0.00,2.000000,,2013-09-14 15:53:00,
2013-09-14 08:03:00,45.0,45.0,-100.00,West,278,0.0,1.0,100,0.00,,,0.00,2.000000,,2013-09-14 16:03:00,
2013-09-14 08:13:00,45.0,45.0,-100.00,West,278,0.0,1.0,100,0.00,,,0.00,2.000000,,2013-09-14 16:13:00,
2013-09-14 08:23:00,45.0,45.0,-100.00,West,278,0.0,1.0,100,0.00,,,0.00,2.000000,,2013-09-14 16:23:00,
2013-09-14 08:54:00,46.0,46.0,-100.00,West,279,0.0,1.0,100,0.00,,,0.00,18.000000,,2013-09-14 16:54:00,
2013-09-14 09:03:00,46.0,46.0,-100.00,West,279,0.0,1.0,100,0.00,,,0.00,18.000000,,2013-09-14 17:03:00,
2013-09-14 09:11:00,46.0,46.0,-100.00,West,279,0.0,1.0,100,0.00,,,0.00,18.000000,,2013-09-14 17:11:00,
2013-09-14 09:23:00,46.0,46.0,-100.00,West,279,0.0,1.0,100,0.00,,,0.00,18.000000,,2013-09-14 17:23:00,
2013-09-14 09:54:00,46.0,46.0,-100.00,NW,305,0.0,1.0,100,0.00,,,0.00,40.000000,,2013-09-14 17:54:00,
2013-09-14 10:02:00,46.0,46.0,-100.00,NW,305,0.0,1.0,100,0.00,,,0.00,40.000000,,2013-09-14 18:02:00,
2013-09-14 10:12:00,46.0,46.0,-100.00,NW,305,0.0,1.0,100,0.00,,,0.00,40.000000,,2013-09-14 18:12:00,
2013-09-14 10:21:00,46.0,46.0,-100.00,NW,305,0.0,1.0,100,0.00,,,0.00,40.000000,,2013-09-14 18:21:00,
2013-09-14 10:52:00,50.0,46.0,-100.00,NNW,346,0.0,1.0,86,0.00,,,0.00,80.000000,,2013-09-14 18:52:00,
2013-09-14 11:02:00,50.0,46.0,-100.00,NNW,346,0.0,1.0,86,0.00,,,0.00,80.000000,,2013-09-14 19:02:00,
2013-09-14 11:11:00,50.0,46.0,-100.00,NNW,346,0.0,1.0,86,0.00,,,0.00,80.000000,,2013-09-14 19:11:00,
2013-09-14 11:22:00,50.0,46.0,-100.00,NNW,346,0.0,1.0,86,0.00,,,0.00,80.000000,,2013-09-14 19:22:00,
2013-09-14 11:52:00,54.0,47.0,-100.00,SSE,156,0.0,1.0,77,0.00,,,0.00,137.000000,,2013-09-14 19:52:00,
2013-09-14 12:02:00,54.0,47.0,-100.00,SSE,156,0.0,1.0,77,0.00,,,0.00,137.000000,,2013-09-14 20:02:00,
2013-09-14 12:12:00,54.0,47.0,-100.00,SSE,156,0.0,1.0,77,0.00,,,0.00,137.000000,,2013-09-14 20:12:00,
2013-09-14 12:22:00,54.0,47.0,-100.00,SSE,156,0.0,1.0,77,0.00,,,0.00,137.000000,,2013-09-14 20:22:00,
2013-09-14 12:52:00,57.0,46.0,-100.00,SE,143,0.0,1.0,65,0.00,,,0.00,218.000000,,2013-09-14 20:52:00,
2013-09-14 13:02:00,57.0,46.0,-100.00,SE,143,0.0,1.0,65,0.00,,,0.00,218.000000,,2013-09-14 21:02:00,
2013-09-14 13:11:00,57.0,46.0,-100.00,SE,143,0.0,1.0,65,0.00,,,0.00,218.000000,,2013-09-14 21:11:00,
2013-09-14 13:22:00,57.0,46.0,-100.00,SE,143,0.0,1.0,65,0.00,,,0.00,218.000000,,2013-09-14 21:22:00,
2013-09-14 13:24:00,57.0,49.0,-100.00,East,82,0.0,1.0,73,0.00,,,0.00,149.000000,,2013-09-14 21:24:00,
2013-09-14 13:54:00,57.0,49.0,-100.00,East,82,0.0,1.0,73,0.00,,,0.00,149.000000,,2013-09-14 21:54:00,
2013-09-14 14:04:00,57.0,49.0,-100.00,East,82,0.0,1.0,73,0.00,,,0.00,149.000000,,2013-09-14 22:04:00,
2013-09-14 14:13:00,57.0,49.0,-100.00,East,82,0.0,1.0,73,0.00,,,0.00,149.000000,,2013-09-14 22:13:00,
2013-09-14 14:53:00,57.0,45.0,-100.00,ESE,108,0.0,1.0,64,0.00,,,0.00,158.000000,,2013-09-14 22:53:00,
2013-09-14 15:03:00,57.0,45.0,-100.00,ESE,108,0.0,1.0,64,0.00,,,0.00,158.000000,,2013-09-14 23:03:00,
2013-09-14 15:11:00,57.0,45.0,-100.00,ESE,108,0.0,1.0,64,0.00,,,0.00,158.000000,,2013-09-14 23:11:00,
2013-09-14 15:23:00,57.0,45.0,-100.00,ESE,108,0.0,1.0,64,0.00,,,0.00,158.000000,,2013-09-14 23:23:00,
2013-09-14 15:53:00,57.0,49.0,-100.00,SE,129,0.0,2.0,74,0.00,,,0.00,183.000000,,2013-09-14 23:53:00,
2013-09-14 16:02:00,57.0,49.0,-100.00,SE,129,0.0,2.0,74,0.00,,,0.00,183.000000,,2013-09-15 00:02:00,
2013-09-14 16:12:00,57.0,49.0,-100.00,SE,129,0.0,2.0,74,0.00,,,0.00,183.000000,,2013-09-15 00:12:00,
2013-09-14 16:22:00,57.0,49.0,-100.00,SE,129,0.0,2.0,74,0.00,,,0.00,183.000000,,2013-09-15 00:22:00,
2013-09-14 16:53:00,57.0,49.0,-100.00,ENE,64,0.0,1.0,75,0.00,,,0.00,125.000000,,2013-09-15 00:53:00,
2013-09-14 17:01:00,57.0,49.0,-100.00,ENE,64,0.0,1.0,75,0.00,,,0.00,125.000000,,2013-09-15 01:01:00,
2013-09-14 17:11:00,57.0,49.0,-100.00,ENE,64,0.0,1.0,75,0.00,,,0.00,125.000000,,2013-09-15 01:11:00,
2013-09-14 17:22:00,57.0,49.0,-100.00,ENE,64,0.0,1.0,75,0.00,,,0.00,125.000000,,2013-09-15 01:22:00,
2013-09-14 17:52:00,55.0,52.0,-100.00,North,353,0.0,0.0,88,0.00,,,0.00,73.000000,,2013-09-15 01:52:00,
2013-09-14 18:02:00,55.0,52.0,-100.00,North,353,0.0,0.0,88,0.00,,,0.00,73.000000,,2013-09-15 02:02:00,
2013-09-14 18:12:00,55.0,52.0,-100.00,North,353,0.0,0.0,88,0.00,,,0.00,73.000000,,2013-09-15 02:12:00,
2013-09-14 18:22:00,55.0,52.0,-100.00,North,353,0.0,0.0,88,0.00,,,0.00,73.000000,,2013-09-15 02:22:00,
2013-09-14 18:52:00,54.0,51.0,-100.00,NW,323,0.0,0.0,92,0.00,,,0.00,51.000000,,2013-09-15 02:52:00,
2013-09-14 19:02:00,54.0,51.0,-100.00,NW,323,0.0,0.0,92,0.00,,,0.00,51.000000,,2013-09-15 03:02:00,
2013-09-14 19:11:00,54.0,51.0,-100.00,NW,323,0.0,0.0,92,0.00,,,0.00,51.000000,,2013-09-15 03:11:00,
2013-09-14 19:21:00,54.0,51.0,-100.00,NW,323,0.0,0.0,92,0.00,,,0.00,51.000000,,2013-09-15 03:21:00,
2013-09-14 19:24:00,52.0,51.0,-100.00,WNW,300,0.0,1.0,96,0.00,,,0.00,23.000000,,2013-09-15 03:24:00,
2013-09-14 19:55:00,52.0,51.0,-100.00,WNW,300,0.0,1.0,96,0.00,,,0.00,23.000000,,2013-09-15 03:55:00,
2013-09-14 20:02:00,-999.0,-99.9,-100.00,WNW,300,0.0,1.0,-999,-99.99,,,-99.99,23.000000,,2013-09-15 04:02:00,
2013-09-14 20:13:00,52.0,51.0,-100.00,WNW,300,0.0,1.0,96,0.00,,,0.00,23.000000,,2013-09-15 04:13:00,
2013-09-14 20:54:00,50.0,49.0,-100.00,WNW,295,0.0,2.0,97,0.00,,,0.00,2.000000,,2013-09-15 04:54:00,
2013-09-14 21:03:00,50.0,49.0,-100.00,WNW,295,0.0,2.0,97,0.00,,,0.00,2.000000,,2013-09-15 05:03:00,
2013-09-14 21:13:00,50.0,49.0,-100.00,WNW,295,0.0,2.0,97,0.00,,,0.00,2.000000,,2013-09-15 05:13:00,
2013-09-14 21:22:00,50.0,49.0,-100.00,WNW,295,0.0,2.0,97,0.00,,,0.00,2.000000,,2013-09-15 05:22:00,
2013-09-14 21:52:00,48.0,48.0,-100.00,WNW,282,0.0,2.0,98,0.00,,,0.00,0.000000,,2013-09-15 05:52:00,
2013-09-14 22:02:00,48.0,48.0,-100.00,WNW,282,0.0,2.0,98,0.00,,,0.00,0.000000,,2013-09-15 06:02:00,
2013-09-14 22:12:00,48.0,48.0,-100.00,WNW,282,0.0,2.0,98,0.00,,,0.00,0.000000,,2013-09-15 06:12:00,
2013-09-14 22:21:00,48.0,48.0,-100.00,WNW,282,0.0,2.0,98,0.00,,,0.00,0.000000,,2013-09-15 06:21:00,
2013-09-14 22:52:00,46.0,46.0,-100.00,WNW,285,0.0,2.0,99,0.00,,,0.00,0.000000,,2013-09-15 06:52:00,
2013-09-14 23:02:00,46.0,46.0,-100.00,WNW,285,0.0,2.0,99,0.00,,,0.00,0.000000,,2013-09-15 07:02:00,
2013-09-14 23:11:00,46.0,46.0,-100.00,WNW,285,0.0,2.0,99,0.00,,,0.00,0.000000,,2013-09-15 07:11:00,
2013-09-14 23:22:00,46.0,46.0,-100.00,WNW,285,0.0,2.0,99,0.00,,,0.00,0.000000,,2013-09-15 07:22:00,
2013-09-14 23:52:00,46.0,46.0,-100.00,WNW,284,0.0,1.0,99,0.00,,,0.00,0.000000,,2013-09-15 07:52:00,